Left ArrowRight Arrow

47.5369, -111.48136

Hourly Observations for May 22, 2024

Temp ( °F °C ) Dew Point ( °F °C ) Humidity (%) Winds ( mph kmh ) Pressure ( in mb ) Visibility ( mi km ) Precip ( " mm )
12:53 am 00:53 Cloudy 48 8.9 32 0 54 54 SW 12 19 29.79 1009 10 16 0.00 0.00
1:53 am 01:53 Cloudy 49 9.4 32 0 52 52 W 13 20 29.80 1009 10 16 0.00 0.00
2:53 am 02:53 Cloudy 49 9.4 35 1.7 59 59 WSW 14 22 29.78 1009 10 16 0.01 0.13
3:53 am 03:53 Cloudy 48 8.9 37 2.8 66 66 SSW 9 15 29.78 1009 10 16 0.01 0.13
4:53 am 04:53 Cloudy 47 8.3 37 2.8 68 68 S 8 13 29.77 1008 10 16 0.00 0.00
5:53 am 05:53 Cloudy 45 7.2 39 3.9 80 80 S 7 11 29.75 1008 10 16 0.01 0.13
6:53 am 06:53 Cloudy 47 8.3 38 3.3 71 71 S 9 15 29.73 1007 10 16 0.00 0.00
7:53 am 07:53 Cloudy 49 9.4 38 3.3 66 66 SSW 14 22 29.71 1006 10 16 0.00 0.00
8:53 am 08:53 Cloudy 53 11.7 37 2.8 54 54 SSW 14 22 29.72 1006 10 16 0.00 0.00
9:53 am 09:53 Cloudy 55 12.8 38 3.3 52 52 SSW 17 28 29.72 1006 10 16 0.00 0.00
10:53 am 10:53 Cloudy 55 12.8 38 3.3 52 52 SSW 17 28 29.72 1007 10 16 0.00 0.00
11:53 am 11:53 Cloudy 55 12.8 37 2.8 51 51 SW 10 17 29.72 1007 10 16 0.00 0.00
12:53 pm 12:53 Cloudy with Light Rain 50 10 44 6.7 80 80 SSW 10 17 29.72 1007 7 11 0.01 0.25
1:53 pm 13:53 Cloudy 54 12.2 40 4.4 59 59 E 5 7 29.70 1006 10 16 0.01 0.13
2:53 pm 14:53 Cloudy with Light Rain 47 8.3 44 6.7 90 90 ESE 9 15 29.73 1007 4 6 0.01 0.13
3:04 pm 15:04 Cloudy with Rain 48 8.9 44 6.7 86 86 ESE 7 11 29.70 1006 2 3 0.03 0.76
3:46 pm 15:46 Mostly Cloudy 51 10.6 44 6.7 77 77 ENE 8 13 29.66 1004 10 16 0.05 1.27
3:53 pm 15:53 Partly Cloudy 52 11.1 44 6.7 74 74 E 7 11 29.71 1006 10 16 0.05 1.27
4:53 pm 16:53 Mostly Cloudy 50 10 45 7.2 83 83 ENE 14 22 29.72 1007 10 16 0.00 0.00
5:27 pm 17:27 Cloudy 50 10 42 5.6 74 74 ENE 12 19 29.69 1005 10 16 0.00 0.00
5:53 pm 17:53 Cloudy 51 10.6 42 5.6 71 71 ENE 13 20 29.74 1007 10 16 0.00 0.00
6:53 pm 18:53 Cloudy with Light Rain 52 11.1 42 5.6 69 69 NE 12 19 29.73 1007 10 16 0.01 0.13
7:53 pm 19:53 Cloudy 50 10 43 6.1 77 77 NNE 12 19 29.75 1007 10 16 0.01 0.13
8:42 pm 20:42 Cloudy 48 8.9 44 6.7 86 86 NNE 14 22 29.74 1007 10 16 0.00 0.00
8:53 pm 20:53 Cloudy 48 8.9 45 7.2 89 89 NNE 15 24 29.76 1008 10 16 0.00 0.00
9:28 pm 21:28 Cloudy with Light Rain 46 7.8 43 6.1 89 89 NE 12 19 29.77 1008 10 16 0.01 0.13
9:43 pm 21:43 Cloudy with Light Rain 46 7.8 44 6.7 93 93 NNE 10 17 29.77 1008 10 16 0.01 0.13
9:53 pm 21:53 Cloudy with Light Rain 46 7.8 44 6.7 93 93 NNE 9 15 29.78 1008 10 16 0.01 0.13
10:03 pm 22:03 Cloudy with Light Rain 46 7.8 45 7.2 96 96 NNE 12 19 29.77 1008 10 16 0.01 0.25
10:53 pm 22:53 Cloudy with Light Rain 46 7.8 44 6.7 93 93 NNE 15 24 29.78 1009 10 16 0.01 0.25
11:53 pm 23:53 Cloudy with Light Rain 45 7.2 44 6.7 97 97 NNE 17 28 29.78 1009 10 16 0.01 0.13

Powered by Vaisala Xweather